"read_dt","SO2 (ppb)","flags","PMT voltage (V)","lamp voltage (V)","lamp intensity (Hz)","internal temp (C)","react chamber temp (C)","sample flow (l/min)","pres (mmHg)","SO2 bkg (ppb)","SO2 coefficient"
2016-11-20 00:00:00,1655E-3,5C000000,-0724,0831,12280,030.0,045.5,0.430,734.7,01.18,0.508
2016-11-20 00:01:00,1691E-3,5C000000,-0724,0832,12128,030.0,045.5,0.430,734.7,01.18,0.508
2016-11-20 00:02:00,1525E-3,5C000000,-0724,0831,12090,030.0,045.5,0.430,734.7,01.18,0.508
2016-11-20 00:03:00,1654E-3,5C000000,-0724,0832,12147,030.0,045.5,0.430,734.7,01.18,0.508
2016-11-20 00:04:00,1548E-3,5C000000,-0724,0831,12009,030.0,045.5,0.430,734.6,01.18,0.508
2016-11-20 00:05:00,1559E-3,5C000000,-0724,0831,12233,030.0,045.5,0.430,734.7,01.18,0.508
2016-11-20 00:06:00,1611E-3,5C000000,-0724,0831,12129,030.1,045.5,0.430,734.7,01.18,0.508
2016-11-20 00:07:00,1622E-3,5C000000,-0724,0829,12131,030.0,045.5,0.430,734.6,01.18,0.508
2016-11-20 00:08:00,1581E-3,5C000000,-0724,0830,12206,030.0,045.5,0.430,734.7,01.18,0.508
2016-11-20 00:09:00,1475E-3,5C000000,-0724,0830,11969,030.0,045.5,0.430,734.7,01.18,0.508
2016-11-20 00:10:00,1603E-3,5C000000,-0724,0831,12308,030.0,045.5,0.430,734.6,01.18,0.508
2016-11-20 00:11:00,1447E-3,5C000000,-0724,0831,12132,030.0,045.5,0.430,734.6,01.18,0.508
2016-11-20 00:12:00,1565E-3,5C000000,-0724,0830,12144,030.0,045.5,0.430,734.7,01.18,0.508
2016-11-20 00:13:00,1508E-3,5C000000,-0724,0831,12196,030.0,045.5,0.430,734.6,01.18,0.508
2016-11-20 00:14:00,1639E-3,5C000000,-0724,0830,12010,030.0,045.5,0.430,734.6,01.18,0.508
2016-11-20 00:15:00,1530E-3,5C000000,-0724,0830,12095,030.0,045.5,0.430,734.6,01.18,0.508
2016-11-20 00:16:00,1621E-3,5C000000,-0724,0830,12222,030.0,045.5,0.429,734.5,01.18,0.508
2016-11-20 00:17:00,1466E-3,5C000000,-0724,0830,12105,030.0,045.5,0.430,734.6,01.18,0.508
2016-11-20 00:18:00,1574E-3,5C000000,-0724,0830,12203,030.0,045.5,0.430,734.5,01.18,0.508
2016-11-20 00:19:00,1550E-3,5C000000,-0724,0830,12372,030.0,045.5,0.430,734.5,01.18,0.508
2016-11-20 00:20:00,1650E-3,5C000000,-0724,0830,12127,030.0,045.5,0.429,734.5,01.18,0.508
2016-11-20 00:21:00,1417E-3,5C000000,-0724,0830,12038,030.0,045.5,0.430,734.4,01.18,0.508
2016-11-20 00:22:00,1519E-3,5C000000,-0724,0832,12038,030.0,045.5,0.430,734.5,01.18,0.508
2016-11-20 00:23:00,1523E-3,5C000000,-0724,0831,12004,030.1,045.5,0.430,734.5,01.18,0.508
2016-11-20 00:24:00,1502E-3,5C000000,-0724,0831,11921,030.1,045.5,0.429,734.4,01.18,0.508
2016-11-20 00:25:00,1711E-3,5C000000,-0724,0831,12084,030.0,045.5,0.430,734.4,01.18,0.508
2016-11-20 00:26:00,1508E-3,5C000000,-0724,0831,12142,030.0,045.5,0.430,734.5,01.18,0.508
2016-11-20 00:27:00,1494E-3,5C000000,-0724,0831,12263,030.0,045.5,0.430,734.5,01.18,0.508
2016-11-20 00:28:00,1575E-3,5C000000,-0724,0830,12231,030.0,045.5,0.429,734.4,01.18,0.508
2016-11-20 00:29:00,1609E-3,5C000000,-0724,0830,12095,030.0,045.5,0.430,734.5,01.18,0.508
2016-11-20 00:30:00,1647E-3,5C000000,-0724,0831,12106,030.0,045.5,0.430,734.5,01.18,0.508
2016-11-20 00:31:00,1588E-3,5C000000,-0724,0831,12114,030.0,045.5,0.430,734.5,01.18,0.508
2016-11-20 00:32:00,1543E-3,5C000000,-0724,0831,12007,030.1,045.5,0.429,734.4,01.18,0.508
2016-11-20 00:33:00,1537E-3,5C000000,-0724,0831,12292,030.0,045.5,0.430,734.4,01.18,0.508
2016-11-20 00:34:00,1676E-3,5C000000,-0724,0832,12136,030.0,045.5,0.430,734.4,01.18,0.508
2016-11-20 00:35:00,1481E-3,5C000000,-0724,0831,12120,030.0,045.5,0.430,734.4,01.18,0.508
2016-11-20 00:36:00,1648E-3,5C000000,-0724,0831,12163,030.0,045.5,0.429,734.3,01.18,0.508
2016-11-20 00:37:00,1563E-3,5C000000,-0724,0832,12211,030.0,045.5,0.430,734.2,01.18,0.508
2016-11-20 00:38:00,1479E-3,5C000000,-0724,0832,12220,030.0,045.5,0.430,734.2,01.18,0.508
2016-11-20 00:39:00,1763E-3,5C000000,-0724,0832,12109,030.0,045.5,0.430,734.2,01.18,0.508
2016-11-20 00:40:00,1592E-3,5C000000,-0724,0832,12252,030.0,045.5,0.430,734.3,01.18,0.508
2016-11-20 00:41:00,1627E-3,5C000000,-0724,0832,12074,030.0,045.5,0.430,734.2,01.18,0.508
2016-11-20 00:42:00,1570E-3,5C000000,-0724,0832,11910,030.0,045.5,0.430,734.2,01.18,0.508
2016-11-20 00:43:00,1618E-3,5C000000,-0724,0831,12155,030.0,045.5,0.430,734.0,01.19,0.508
2016-11-20 00:44:00,1614E-3,5C000000,-0724,0832,12235,030.0,045.5,0.429,734.2,01.18,0.508
2016-11-20 00:45:00,1414E-3,5C000000,-0724,0831,12185,030.0,045.5,0.430,734.2,01.18,0.508
2016-11-20 00:46:00,1573E-3,5C000000,-0724,0831,12091,030.0,045.5,0.430,734.1,01.19,0.508
2016-11-20 00:47:00,1501E-3,5C000000,-0724,0831,12088,030.0,045.5,0.430,734.1,01.19,0.508
2016-11-20 00:48:00,1563E-3,5C000000,-0724,0832,11934,030.1,045.5,0.429,734.2,01.18,0.508
2016-11-20 00:49:00,1621E-3,5C000000,-0724,0832,11854,030.1,045.5,0.430,734.2,01.18,0.508
2016-11-20 00:50:00,1619E-3,5C000000,-0724,0831,12156,030.1,045.5,0.430,734.1,01.19,0.508
2016-11-20 00:51:00,1614E-3,5C000000,-0724,0832,12158,030.1,045.5,0.430,734.1,01.19,0.508
2016-11-20 00:52:00,1576E-3,5C000000,-0724,0831,12162,030.0,045.5,0.430,734.1,01.19,0.508
2016-11-20 00:53:00,1586E-3,5C000000,-0724,0831,12186,030.1,045.5,0.429,734.2,01.18,0.508
2016-11-20 00:54:00,1628E-3,5C000000,-0724,0832,12104,030.0,045.5,0.430,734.2,01.18,0.508
2016-11-20 00:55:00,1556E-3,5C000000,-0724,0831,12121,030.0,045.5,0.430,734.1,01.19,0.508
2016-11-20 00:56:00,1682E-3,5C000000,-0724,0831,12180,030.0,045.5,0.430,734.2,01.18,0.508
2016-11-20 00:57:00,1590E-3,5C000000,-0724,0832,12149,030.0,045.5,0.429,734.2,01.18,0.508
2016-11-20 00:58:00,1540E-3,5C000000,-0724,0831,12046,030.0,045.5,0.430,734.2,01.18,0.508
2016-11-20 00:59:00,1638E-3,5C000000,-0724,0832,12136,030.0,045.5,0.430,734.1,01.19,0.508
2016-11-20 01:00:00,1603E-3,5C000000,-0724,0832,12109,029.9,045.5,0.430,734.2,01.18,0.508
2016-11-20 01:01:00,1657E-3,5C000000,-0724,0831,12089,030.0,045.5,0.430,734.2,01.18,0.508
2016-11-20 01:02:00,1535E-3,5C000000,-0724,0832,12259,030.0,045.5,0.429,734.1,01.19,0.508
2016-11-20 01:03:00,1540E-3,5C000000,-0724,0831,12017,030.0,045.5,0.430,734.1,01.19,0.508
2016-11-20 01:04:00,1582E-3,5C000000,-0724,0832,12254,030.0,045.5,0.430,734.1,01.19,0.508
2016-11-20 01:05:00,1601E-3,5C000000,-0724,0831,12088,030.0,045.5,0.430,734.0,01.19,0.508
2016-11-20 01:06:00,1605E-3,5C000000,-0724,0831,12049,030.0,045.5,0.429,734.1,01.19,0.508
2016-11-20 01:07:00,1541E-3,5C000000,-0724,0831,12056,030.0,045.5,0.430,734.1,01.19,0.508
2016-11-20 01:08:00,1455E-3,5C000000,-0724,0831,12167,030.0,045.5,0.430,734.0,01.19,0.508
2016-11-20 01:09:00,1690E-3,5C000000,-0724,0831,12111,030.0,045.5,0.430,734.0,01.19,0.508
2016-11-20 01:10:00,1567E-3,5C000000,-0724,0832,12223,030.0,045.5,0.429,734.0,01.19,0.508
2016-11-20 01:11:00,1573E-3,5C000000,-0724,0831,12056,030.0,045.5,0.430,734.1,01.19,0.508
2016-11-20 01:12:00,1663E-3,5C000000,-0724,0831,11998,030.0,045.5,0.430,734.1,01.19,0.508
2016-11-20 01:13:00,1558E-3,5C000000,-0724,0830,12192,030.1,045.5,0.430,734.0,01.19,0.508
2016-11-20 01:14:00,1558E-3,5C000000,-0724,0831,12199,030.0,045.5,0.430,734.2,01.18,0.508
2016-11-20 01:15:00,1551E-3,5C000000,-0724,0831,12102,030.0,045.5,0.429,734.1,01.19,0.508
2016-11-20 01:16:00,1535E-3,5C000000,-0724,0832,12087,030.0,045.5,0.430,734.1,01.19,0.508
2016-11-20 01:17:00,1648E-3,5C000000,-0724,0832,12051,030.0,045.5,0.430,734.2,01.18,0.508
2016-11-20 01:18:00,1584E-3,5C000000,-0724,0831,12096,030.0,045.5,0.430,734.1,01.19,0.508
2016-11-20 01:19:00,1486E-3,5C000000,-0724,0832,12064,029.9,045.5,0.429,734.1,01.19,0.508
2016-11-20 01:20:00,1600E-3,5C000000,-0724,0832,12183,030.0,045.5,0.430,734.1,01.19,0.508
2016-11-20 01:21:00,1562E-3,5C000000,-0724,0831,12123,030.0,045.5,0.430,734.1,01.19,0.508
2016-11-20 01:22:00,1689E-3,5C000000,-0724,0832,12091,030.0,045.5,0.430,734.2,01.18,0.508
2016-11-20 01:23:00,1660E-3,5C000000,-0724,0832,12108,030.0,045.5,0.429,734.0,01.19,0.508
2016-11-20 01:24:00,1613E-3,5C000000,-0724,0832,12147,030.0,045.5,0.430,734.1,01.19,0.508
2016-11-20 01:25:00,1617E-3,5C000000,-0724,0831,11986,030.0,045.5,0.430,734.0,01.19,0.508
2016-11-20 01:26:00,1477E-3,5C000000,-0724,0832,12112,030.0,045.5,0.430,734.2,01.18,0.508
2016-11-20 01:27:00,1556E-3,5C000000,-0724,0832,12130,030.0,045.5,0.429,734.0,01.19,0.508
2016-11-20 01:28:00,1659E-3,5C000000,-0724,0831,12224,030.0,045.5,0.429,734.1,01.19,0.508
2016-11-20 01:29:00,1537E-3,5C000000,-0724,0831,12124,030.0,045.5,0.430,734.0,01.19,0.508
2016-11-20 01:30:00,1647E-3,5C000000,-0724,0832,12102,030.0,045.5,0.430,734.1,01.19,0.508
2016-11-20 01:31:00,1536E-3,5C000000,-0724,0831,12061,030.0,045.5,0.430,734.1,01.19,0.508
2016-11-20 01:32:00,1477E-3,5C000000,-0724,0831,12088,030.0,045.5,0.429,734.1,01.19,0.508
2016-11-20 01:33:00,1702E-3,5C000000,-0724,0832,12057,030.0,045.5,0.430,734.0,01.19,0.508
2016-11-20 01:34:00,1603E-3,5C000000,-0724,0831,12160,030.0,045.5,0.430,734.1,01.19,0.508
2016-11-20 01:35:00,1478E-3,5C000000,-0724,0831,12092,030.1,045.5,0.430,734.0,01.19,0.508
2016-11-20 01:36:00,1648E-3,5C000000,-0724,0831,12195,030.0,045.5,0.429,734.0,01.19,0.508
2016-11-20 01:37:00,1595E-3,5C000000,-0724,0831,12033,030.0,045.5,0.430,734.0,01.19,0.508
2016-11-20 01:38:00,1514E-3,5C000000,-0724,0831,12071,030.1,045.5,0.430,734.0,01.19,0.508
2016-11-20 01:39:00,1537E-3,5C000000,-0724,0831,12067,030.0,045.5,0.430,734.0,01.19,0.508
2016-11-20 01:40:00,1607E-3,5C000000,-0724,0832,12193,030.0,045.5,0.429,734.0,01.19,0.508
2016-11-20 01:41:00,1441E-3,5C000000,-0724,0832,12059,030.1,045.5,0.429,733.9,01.19,0.508
2016-11-20 01:42:00,1652E-3,5C000000,-0724,0831,12233,030.1,045.5,0.430,733.9,01.19,0.508
2016-11-20 01:43:00,1542E-3,5C000000,-0724,0832,12067,030.1,045.5,0.430,733.9,01.19,0.508
2016-11-20 01:44:00,1603E-3,5C000000,-0724,0832,12134,030.1,045.5,0.430,734.0,01.19,0.508
2016-11-20 01:45:00,1395E-3,5C000000,-0724,0832,12037,030.1,045.5,0.429,733.9,01.19,0.508
2016-11-20 01:46:00,1512E-3,5C000000,-0724,0832,12077,030.1,045.5,0.429,734.0,01.19,0.508
2016-11-20 01:47:00,1575E-3,5C000000,-0724,0832,12169,030.1,045.5,0.430,734.0,01.19,0.508
2016-11-20 01:48:00,1639E-3,5C000000,-0724,0831,12196,030.0,045.5,0.430,734.0,01.19,0.508
2016-11-20 01:49:00,1547E-3,5C000000,-0724,0833,12033,030.0,045.5,0.430,734.0,01.19,0.508
2016-11-20 01:50:00,1488E-3,5C000000,-0724,0831,11977,030.1,045.5,0.429,734.1,01.19,0.508
2016-11-20 01:51:00,1592E-3,5C000000,-0724,0831,12108,030.1,045.5,0.430,734.1,01.19,0.508
2016-11-20 01:52:00,1563E-3,5C000000,-0724,0832,12184,030.0,045.5,0.430,734.0,01.19,0.508
2016-11-20 01:53:00,1563E-3,5C000000,-0724,0832,12037,030.1,045.5,0.430,734.0,01.19,0.508
2016-11-20 01:54:00,1507E-3,5C000000,-0724,0832,12055,030.1,045.5,0.429,733.9,01.19,0.508
2016-11-20 01:55:00,1561E-3,5C000000,-0724,0832,12073,030.1,045.5,0.430,733.9,01.19,0.508
2016-11-20 01:56:00,1596E-3,5C000000,-0724,0832,12121,030.1,045.5,0.430,733.9,01.19,0.508
2016-11-20 01:57:00,1607E-3,5C000000,-0724,0832,12074,030.1,045.5,0.430,734.0,01.19,0.508
2016-11-20 01:58:00,1431E-3,5C000000,-0724,0831,12197,030.1,045.5,0.429,733.9,01.19,0.508
2016-11-20 01:59:00,1742E-3,5C000000,-0724,0832,12095,030.1,045.5,0.429,733.9,01.19,0.508
2016-11-20 02:00:00,1528E-3,5C000000,-0724,0832,12042,030.1,045.5,0.430,733.9,01.19,0.508
2016-11-20 02:01:00,1519E-3,5C000000,-0724,0831,12131,030.1,045.5,0.430,733.9,01.19,0.508
2016-11-20 02:02:00,1617E-3,5C000000,-0724,0833,12123,030.1,045.5,0.430,733.9,01.19,0.508
2016-11-20 02:03:00,1626E-3,5C000000,-0724,0833,11991,030.0,045.5,0.429,733.9,01.19,0.508
2016-11-20 02:04:00,1684E-3,5C000000,-0724,0832,12012,030.0,045.5,0.429,733.9,01.19,0.508
2016-11-20 02:05:00,1573E-3,5C000000,-0724,0831,11976,030.0,045.5,0.430,733.9,01.19,0.508
2016-11-20 02:06:00,1676E-3,5C000000,-0724,0831,11942,030.0,045.5,0.430,733.9,01.19,0.508
2016-11-20 02:07:00,1587E-3,5C000000,-0724,0832,12217,030.0,045.5,0.430,733.9,01.19,0.508
2016-11-20 02:08:00,1660E-3,5C000000,-0724,0832,11995,030.0,045.5,0.429,733.7,01.19,0.508
2016-11-20 02:09:00,1434E-3,5C000000,-0724,0832,12118,030.0,045.5,0.430,733.7,01.19,0.508
2016-11-20 02:10:00,1601E-3,5C000000,-0724,0832,12135,030.0,045.5,0.430,733.8,01.19,0.508
2016-11-20 02:11:00,1678E-3,5C000000,-0724,0831,12138,030.0,045.5,0.430,733.8,01.19,0.508
2016-11-20 02:12:00,1683E-3,5C000000,-0724,0831,12086,030.0,045.5,0.429,733.8,01.19,0.508
2016-11-20 02:13:00,1704E-3,5C000000,-0724,0831,12201,030.1,045.5,0.429,733.7,01.19,0.508
2016-11-20 02:14:00,1498E-3,5C000000,-0724,0831,12165,030.1,045.5,0.430,733.7,01.19,0.508
2016-11-20 02:15:00,1620E-3,5C000000,-0724,0832,12084,030.1,045.5,0.430,733.7,01.19,0.508
2016-11-20 02:16:00,1503E-3,5C000000,-0724,0832,12081,030.1,045.5,0.430,733.8,01.19,0.508
2016-11-20 02:17:00,1579E-3,5C000000,-0724,0832,12079,030.1,045.5,0.429,733.7,01.19,0.508
2016-11-20 02:18:00,1497E-3,5C000000,-0724,0832,11990,030.0,045.5,0.429,733.7,01.19,0.508
2016-11-20 02:19:00,1548E-3,5C000000,-0724,0831,12100,030.0,045.5,0.430,733.7,01.19,0.508
2016-11-20 02:20:00,1635E-3,5C000000,-0724,0831,12127,030.0,045.5,0.430,733.7,01.19,0.508
2016-11-20 02:21:00,1610E-3,5C000000,-0724,0831,12134,030.0,045.5,0.429,733.7,01.19,0.508
2016-11-20 02:22:00,1512E-3,5C000000,-0724,0833,12228,030.0,045.5,0.429,733.7,01.19,0.508
2016-11-20 02:23:00,1605E-3,5C000000,-0724,0831,12114,030.0,045.5,0.429,733.8,01.19,0.508
2016-11-20 02:24:00,1589E-3,5C000000,-0724,0832,12223,030.0,045.5,0.430,733.7,01.19,0.508
2016-11-20 02:25:00,1613E-3,5C000000,-0724,0832,12186,030.0,045.5,0.430,733.8,01.19,0.508
2016-11-20 02:26:00,1528E-3,5C000000,-0724,0832,12003,030.1,045.5,0.429,733.8,01.19,0.508
2016-11-20 02:27:00,1580E-3,5C000000,-0724,0832,12185,030.0,045.5,0.429,733.8,01.19,0.508
2016-11-20 02:28:00,1645E-3,5C000000,-0724,0832,12235,030.0,045.5,0.430,733.8,01.19,0.508
2016-11-20 02:29:00,1479E-3,5C000000,-0724,0832,12236,030.0,045.5,0.430,733.7,01.19,0.508
2016-11-20 02:30:00,1529E-3,5C000000,-0724,0832,12170,030.0,045.5,0.430,733.6,01.19,0.508
2016-11-20 02:31:00,1588E-3,5C000000,-0724,0832,12116,030.0,045.5,0.429,733.6,01.19,0.508
2016-11-20 02:32:00,1526E-3,5C000000,-0724,0832,12022,030.0,045.5,0.429,733.7,01.19,0.508
2016-11-20 02:33:00,1533E-3,5C000000,-0724,0832,12010,030.0,045.5,0.429,733.6,01.19,0.508
2016-11-20 02:34:00,1742E-3,5C000000,-0724,0831,12087,030.0,045.5,0.430,733.6,01.19,0.508
2016-11-20 02:35:00,1587E-3,5C000000,-0724,0833,12216,030.0,045.5,0.430,733.5,01.19,0.508
2016-11-20 02:36:00,1625E-3,5C000000,-0724,0832,12202,030.0,045.5,0.430,733.5,01.19,0.508
2016-11-20 02:37:00,1557E-3,5C000000,-0724,0832,12165,030.0,045.5,0.429,733.6,01.19,0.508
2016-11-20 02:38:00,1650E-3,5C000000,-0724,0832,12065,030.1,045.5,0.429,733.5,01.19,0.508
2016-11-20 02:39:00,1723E-3,5C000000,-0724,0832,12152,030.0,045.5,0.430,733.7,01.19,0.508
2016-11-20 02:40:00,1609E-3,5C000000,-0724,0832,12105,030.0,045.5,0.430,733.7,01.19,0.508
2016-11-20 02:41:00,1596E-3,5C000000,-0724,0832,12091,030.1,045.5,0.430,733.6,01.19,0.508
2016-11-20 02:42:00,1604E-3,5C000000,-0724,0832,11974,030.0,045.5,0.429,733.6,01.19,0.508
2016-11-20 02:43:00,1559E-3,5C000000,-0724,0832,12112,030.0,045.5,0.429,733.7,01.19,0.508
2016-11-20 02:44:00,1481E-3,5C000000,-0724,0832,12098,030.0,045.5,0.429,733.7,01.19,0.508
2016-11-20 02:45:00,1561E-3,5C000000,-0724,0832,12143,030.0,045.5,0.430,733.6,01.19,0.508
2016-11-20 02:46:00,1600E-3,5C000000,-0724,0832,12187,030.0,045.5,0.430,733.6,01.19,0.508
2016-11-20 02:47:00,1595E-3,5C000000,-0724,0832,12211,030.0,045.5,0.430,733.7,01.19,0.508
2016-11-20 02:48:00,1583E-3,5C000000,-0724,0832,11916,030.0,045.5,0.429,733.7,01.19,0.508
2016-11-20 02:49:00,1501E-3,5C000000,-0724,0832,12173,030.0,045.5,0.429,733.7,01.19,0.508
2016-11-20 02:50:00,1569E-3,5C000000,-0724,0833,12278,029.9,045.5,0.430,733.6,01.19,0.508
2016-11-20 02:51:00,1676E-3,5C000000,-0724,0832,12122,029.9,045.5,0.430,733.7,01.19,0.508
2016-11-20 02:52:00,1673E-3,5C000000,-0724,0831,12074,029.9,045.5,0.430,733.6,01.19,0.508
2016-11-20 02:53:00,1593E-3,5C000000,-0724,0832,12214,030.0,045.5,0.429,733.6,01.19,0.508
2016-11-20 02:54:00,1623E-3,5C000000,-0724,0832,12181,030.0,045.5,0.429,733.5,01.19,0.508
2016-11-20 02:55:00,1564E-3,5C000000,-0724,0832,12183,030.0,045.5,0.429,733.6,01.19,0.508
2016-11-20 02:56:00,1625E-3,5C000000,-0724,0831,11968,030.0,045.5,0.430,733.5,01.19,0.508
2016-11-20 02:57:00,1519E-3,5C000000,-0724,0832,12076,030.0,045.5,0.430,733.6,01.19,0.508
2016-11-20 02:58:00,1524E-3,5C000000,-0724,0833,12142,030.0,045.5,0.430,733.6,01.19,0.508
2016-11-20 02:59:00,1526E-3,5C000000,-0724,0833,12087,030.0,045.5,0.429,733.5,01.19,0.508
2016-11-20 03:00:00,1621E-3,5C000000,-0724,0832,12056,030.0,045.5,0.429,733.6,01.19,0.508
2016-11-20 03:01:00,1537E-3,5C000000,-0724,0832,12265,030.0,045.5,0.430,733.5,01.19,0.508
2016-11-20 03:02:00,1624E-3,5C000000,-0724,0832,12180,030.1,045.5,0.430,733.5,01.19,0.508
2016-11-20 03:03:00,1705E-3,5C000000,-0724,0832,12085,030.1,045.5,0.430,733.5,01.19,0.508
2016-11-20 03:04:00,1512E-3,5C000000,-0724,0832,12074,030.0,045.5,0.430,733.4,01.19,0.508
2016-11-20 03:05:00,1525E-3,5C000000,-0724,0832,12195,030.0,045.5,0.429,733.5,01.19,0.508
2016-11-20 03:06:00,1605E-3,5C000000,-0724,0832,12197,030.1,045.5,0.429,733.5,01.19,0.508
2016-11-20 03:07:00,1612E-3,5C000000,-0724,0831,11991,030.1,045.5,0.429,733.6,01.19,0.508
2016-11-20 03:08:00,1459E-3,5C000000,-0724,0832,12191,030.1,045.5,0.430,733.6,01.19,0.508
2016-11-20 03:09:00,1517E-3,5C000000,-0724,0832,12058,030.1,045.5,0.430,733.6,01.19,0.508
2016-11-20 03:10:00,1505E-3,5C000000,-0724,0832,12070,030.0,045.5,0.430,733.6,01.19,0.508
2016-11-20 03:11:00,1622E-3,5C000000,-0724,0832,12154,030.0,045.5,0.430,733.6,01.19,0.508
2016-11-20 03:12:00,1571E-3,5C000000,-0724,0832,12075,030.0,045.5,0.429,733.5,01.19,0.508
2016-11-20 03:13:00,1463E-3,5C000000,-0724,0832,12111,030.1,045.5,0.429,733.4,01.19,0.508
2016-11-20 03:14:00,1581E-3,5C000000,-0724,0832,12150,030.1,045.5,0.429,733.4,01.19,0.508
2016-11-20 03:15:00,1565E-3,5C000000,-0724,0833,12150,030.1,045.5,0.430,733.5,01.19,0.508
2016-11-20 03:16:00,1558E-3,5C000000,-0724,0831,12207,030.1,045.5,0.430,733.5,01.19,0.508
2016-11-20 03:17:00,1512E-3,5C000000,-0724,0831,12062,030.1,045.5,0.429,733.4,01.19,0.508
2016-11-20 03:18:00,1510E-3,5C000000,-0724,0831,12135,030.1,045.5,0.429,733.5,01.19,0.508
2016-11-20 03:19:00,1618E-3,5C000000,-0724,0831,11953,030.1,045.5,0.429,733.5,01.19,0.508
2016-11-20 03:20:00,1610E-3,5C000000,-0724,0831,12032,030.1,045.5,0.429,733.5,01.19,0.508
2016-11-20 03:21:00,1445E-3,5C000000,-0724,0832,12089,030.1,045.5,0.430,733.5,01.19,0.508
2016-11-20 03:22:00,1555E-3,5C000000,-0724,0831,12075,030.1,045.5,0.429,733.5,01.19,0.508
2016-11-20 03:23:00,1494E-3,5C000000,-0724,0831,12090,030.0,045.5,0.429,733.5,01.19,0.508
2016-11-20 03:24:00,1617E-3,5C000000,-0724,0832,12079,030.1,045.5,0.429,733.5,01.19,0.508
2016-11-20 03:25:00,1651E-3,5C000000,-0724,0832,12210,030.0,045.5,0.429,733.5,01.19,0.508
2016-11-20 03:26:00,1656E-3,5C000000,-0724,0833,12158,030.0,045.5,0.430,733.5,01.19,0.508
2016-11-20 03:27:00,1494E-3,5C000000,-0724,0832,12277,030.0,045.5,0.430,733.4,01.19,0.508
2016-11-20 03:28:00,1704E-3,5C000000,-0724,0832,12134,030.0,045.5,0.429,733.5,01.19,0.508
2016-11-20 03:29:00,1537E-3,5C000000,-0724,0832,12194,030.0,045.5,0.429,733.5,01.19,0.508
2016-11-20 03:30:00,1504E-3,5C000000,-0724,0832,12138,030.0,045.5,0.429,733.5,01.19,0.508
2016-11-20 03:31:00,1551E-3,5C000000,-0724,0832,12078,030.0,045.5,0.430,733.5,01.19,0.508
2016-11-20 03:32:00,1665E-3,5C000000,-0724,0832,12129,030.0,045.5,0.430,733.4,01.19,0.508
2016-11-20 03:33:00,1468E-3,5C000000,-0724,0833,12105,030.0,045.5,0.429,733.5,01.19,0.508
2016-11-20 03:34:00,1644E-3,5C000000,-0724,0833,12239,030.0,045.5,0.429,733.4,01.19,0.508
2016-11-20 03:35:00,1564E-3,5C000000,-0724,0833,12085,030.0,045.5,0.429,733.5,01.19,0.508
2016-11-20 03:36:00,1693E-3,5C000000,-0724,0831,12103,030.0,045.5,0.429,733.4,01.19,0.508
2016-11-20 03:37:00,1529E-3,5C000000,-0724,0832,12319,029.9,045.5,0.430,733.5,01.19,0.508
2016-11-20 03:38:00,1438E-3,5C000000,-0724,0831,12007,030.0,045.5,0.430,733.4,01.19,0.508
2016-11-20 03:39:00,1631E-3,5C000000,-0724,0832,12065,030.0,045.5,0.430,733.3,01.19,0.508
2016-11-20 03:40:00,1481E-3,5C000000,-0724,0832,12251,030.0,045.5,0.429,733.3,01.19,0.508
2016-11-20 03:41:00,1615E-3,5C000000,-0724,0831,12014,029.9,045.5,0.429,733.4,01.19,0.508
2016-11-20 03:42:00,1630E-3,5C000000,-0724,0832,12166,030.0,045.5,0.430,733.3,01.19,0.508
2016-11-20 03:43:00,1409E-3,5C000000,-0724,0832,12121,030.0,045.5,0.430,733.2,01.19,0.508
2016-11-20 03:44:00,1600E-3,5C000000,-0724,0831,12232,030.0,045.5,0.430,733.3,01.19,0.508
2016-11-20 03:45:00,1637E-3,5C000000,-0724,0833,12088,030.0,045.5,0.429,733.4,01.19,0.508
2016-11-20 03:46:00,1534E-3,5C000000,-0724,0832,11979,030.0,045.5,0.429,733.3,01.19,0.508
2016-11-20 03:47:00,1641E-3,5C000000,-0724,0832,12105,030.0,045.5,0.429,733.4,01.19,0.508
2016-11-20 03:48:00,1644E-3,5C000000,-0724,0832,12096,030.0,045.5,0.429,733.4,01.19,0.508
2016-11-20 03:49:00,1742E-3,5C000000,-0724,0833,12040,030.0,045.5,0.430,733.4,01.19,0.508
2016-11-20 03:50:00,1539E-3,5C000000,-0724,0833,12030,030.1,045.5,0.430,733.4,01.19,0.508
2016-11-20 03:51:00,1609E-3,5C000000,-0724,0832,12041,030.0,045.5,0.430,733.5,01.19,0.508
2016-11-20 03:52:00,1552E-3,5C000000,-0724,0832,12053,030.0,045.5,0.429,733.5,01.19,0.508
2016-11-20 03:53:00,1443E-3,5C000000,-0724,0832,12135,030.0,045.5,0.429,733.4,01.19,0.508
2016-11-20 03:54:00,1574E-3,5C000000,-0724,0832,12124,030.0,045.5,0.429,733.3,01.19,0.508
2016-11-20 03:55:00,1555E-3,5C000000,-0724,0832,12049,030.0,045.5,0.429,733.5,01.19,0.508
2016-11-20 03:56:00,1565E-3,5C000000,-0724,0831,12101,030.0,045.5,0.430,733.5,01.19,0.508
2016-11-20 03:57:00,1438E-3,5C000000,-0724,0832,12082,030.0,045.5,0.430,733.3,01.19,0.508
2016-11-20 03:58:00,1750E-3,5C000000,-0724,0832,12104,030.0,045.5,0.429,733.4,01.19,0.508
2016-11-20 03:59:00,1543E-3,5C000000,-0724,0832,12151,030.0,045.5,0.429,733.3,01.19,0.508
2016-11-20 04:00:00,1646E-3,5C000000,-0724,0832,12142,030.0,045.5,0.429,733.4,01.19,0.508
2016-11-20 04:01:00,1650E-3,5C000000,-0724,0832,12112,030.1,045.5,0.429,733.5,01.19,0.508
2016-11-20 04:02:00,1676E-3,5C000000,-0724,0832,12111,030.1,045.5,0.430,733.5,01.19,0.508
2016-11-20 04:03:00,1621E-3,5C000000,-0724,0832,12178,030.1,045.5,0.430,733.5,01.19,0.508
2016-11-20 04:04:00,1543E-3,5C000000,-0724,0832,12154,030.1,045.5,0.429,733.4,01.19,0.508
2016-11-20 04:05:00,1593E-3,5C000000,-0724,0833,12215,030.1,045.5,0.429,733.5,01.19,0.508
2016-11-20 04:06:00,1619E-3,5C000000,-0724,0832,12158,030.0,045.5,0.429,733.5,01.19,0.508
2016-11-20 04:07:00,1643E-3,5C000000,-0724,0832,12203,030.0,045.5,0.429,733.4,01.19,0.508
2016-11-20 04:08:00,1591E-3,5C000000,-0724,0832,12018,030.1,045.5,0.430,733.3,01.19,0.508
2016-11-20 04:09:00,1537E-3,5C000000,-0724,0832,12030,030.0,045.5,0.430,733.5,01.19,0.508
2016-11-20 04:10:00,1535E-3,5C000000,-0724,0832,12127,030.0,045.5,0.429,733.4,01.19,0.508
2016-11-20 04:11:00,1613E-3,5C000000,-0724,0832,12179,030.0,045.5,0.429,733.5,01.19,0.508
2016-11-20 04:12:00,1581E-3,5C000000,-0724,0832,11889,030.0,045.5,0.429,733.4,01.19,0.508
2016-11-20 04:13:00,1601E-3,5C000000,-0724,0832,12211,030.0,045.5,0.430,733.5,01.19,0.508
2016-11-20 04:14:00,1587E-3,5C000000,-0724,0832,12088,030.0,045.5,0.430,733.4,01.19,0.508
2016-11-20 04:15:00,1585E-3,5C000000,-0724,0832,12247,030.0,045.5,0.430,733.4,01.19,0.508
2016-11-20 04:16:00,1563E-3,5C000000,-0724,0833,12103,030.0,045.5,0.429,733.3,01.19,0.508
2016-11-20 04:17:00,1592E-3,5C000000,-0724,0833,12127,030.0,045.5,0.429,733.4,01.19,0.508
2016-11-20 04:18:00,1591E-3,5C000000,-0724,0832,12063,030.0,045.5,0.429,733.4,01.19,0.508
2016-11-20 04:19:00,1531E-3,5C000000,-0724,0832,12069,030.0,045.5,0.430,733.3,01.19,0.508
2016-11-20 04:20:00,1475E-3,5C000000,-0724,0832,12119,030.0,045.5,0.430,733.3,01.19,0.508